Regional Weather Roundup
Issued by NWS

Home | Current Version | Previous Version | Text Only | Print | Product List | Glossary On
Versions: 1 2 3 4 5 6 7 8 9 10 11 12 13 14 15 16 17 18 19 20 21 22 23 24 25 26 27 28 29 30 31 32 33 34 35 36 37 38 39 40 41 42 43 44 45 46 47 48 49 50
000
ASUS43 KOAX 242110
RWRNE

WEATHER ROUNDUP FOR NEBRASKA
NATIONAL WEATHER SERVICE OMAHA NE
300 PM CST TUE JAN 24 2017

NOTES: SATELLITE DATA IS BEING USED TO AUGMENT CLOUD COVER ABOVE
       12000 FEET.
       "FAIR" INDICATES FEW OR NO CLOUDS BELOW 12,000 FEET WITH NO
       SIGNIFICANT WEATHER AND/OR OBSTRUCTIONS TO VISIBILITY.

  * THESE STATIONS DO NOT REPORT WEATHER SUCH AS RAIN...SNOW OR FOG.

NEZ001>004-019>022-054>056-242200-
NEBRASKA PANHANDLE

CITY           SKY/WX    TMP DP  RH WIND       PRES   REMARKS
SCOTTSBLUFF    CLOUDY    25  16  68 N20       29.69R WCI  11
ALLIANCE       FOG       20  16  84 N24G33    29.64R VSB 1   WCI   3
CHADRON        SNOW      22  18  85 N18       29.75R VSB 1/2 WCI   7
KIMBALL        CLOUDY    22  18  85 N20G26    29.62R WCI   6
SIDNEY         CLOUDY    22  16  78 N30G37    29.62R BLWGSNOWWCI   4
$$

NEZ057>060-069>072-079>082-242200-
SOUTHWEST NEBRASKA

CITY           SKY/WX    TMP DP  RH WIND       PRES   REMARKS
NORTH PLATTE   MIX PCPN  32  27  81 N17       29.53R WCI  21
LEXINGTON      CLOUDY    32  29  87 N8        29.49S WCI  25
MCCOOK         CLOUDY    33  29  85 N16       29.49S WCI  23
OGALLALA       CLOUDY    29  23  78 NW25G33   29.58R WCI  14
$$

NEZ005>010-023>029-035>040-094-242200-
NORTH CENTRAL NEBRASKA

CITY           SKY/WX    TMP DP  RH WIND       PRES   REMARKS
VALENTINE      LGT SNOW  28  25  88 N14       29.61F VSB 3/4 WCI  17
AINSWORTH      SNOW      28  28 100 N15       29.59R VSB 1/2 WCI  17
BROKEN BOW     LGT SNOW  30  28  92 NE13      29.50S VSB 1   WCI  20
O`NEILL        HVY SNOW  30  29  98 N15       29.58R VSB 1/4 WCI  19
ORD            LGT SNOW  31  27  85 E10       29.52S FOG     WCI  22
THEDFORD       SNOW      28  28  96 N13       29.55S VSB 1/2 WCI  18
$$

NEZ041-046>049-061>064-073>077-083>087-242200-
SOUTH CENTRAL NEBRASKA

CITY           SKY/WX    TMP DP  RH WIND       PRES   REMARKS
GRAND ISLAND   LGT SNOW  31  30  96 E9        29.50S FOG     WCI  23
AURORA         MIX PCPN  31  31  99 E8        29.49S WCI  24
HASTINGS       CLOUDY    31  30  96 E12       29.47F FOG     WCI  22
HEBRON         CLOUDY    34  32  91 NE10      29.46R FOG     WCI  26
HOLDREGE       CLOUDY    32  30  92 N7        29.47S WCI  26
KEARNEY *      CLOUDY    30  27  86 NE8       29.49R WCI  23
YORK           SUNNY     32  32 100 E10       29.50R WCI  24
$$

NEZ011>018-030>034-042>045-242200-
NORTHEAST NEBRASKA

CITY           SKY/WX    TMP DP  RH WIND       PRES   REMARKS
NORFOLK        LGT SNOW  31  28  89 NE14      29.50F VSB 3/4 WCI  21
ALBION         LGT SNOW  32  29  90 E9        29.53R VSB 1   WCI  24
BLAIR          CLOUDY    33  30  88 NE18G25   29.50F WCI  22
FREMONT        CLOUDY    34  31  90 E13G20    29.51R WCI  25
TEKAMAH        LGT SNOW  33  29  85 E18G25    29.53F FOG     WCI  22
WAYNE          LGT SNOW  32  30  94 E20G26    29.56F VSB 3/4 WCI  20
$$

NEZ050>053-065>068-078-088>093-242200-
SOUTHEAST NEBRASKA

CITY           SKY/WX    TMP DP  RH WIND       PRES   REMARKS
LINCOLN        CLOUDY    35  29  78 E14       29.51R WCI  26
OMAHA EPPLEY   CLOUDY    35  28  75 NE13      29.55F WCI  26
BEATRICE       CLOUDY    36  33  88 E10       29.46S FOG     WCI  28
FALLS CITY     CLOUDY    40  34  79 SE17      29.47R WCI  31
NEBRASKA CITY  CLOUDY    37  30  78 E14       29.48F WCI  28
PLATTSMOUTH    CLOUDY    35  28  77 E15       29.50F WCI  25
$$

NEZ044-045-051>053-067-242200-
OMAHA AREA

CITY           SKY/WX    TMP DP  RH WIND       PRES   REMARKS
OMAHA EPPLEY   CLOUDY    35  28  75 NE13      29.55F WCI  26
BLAIR          CLOUDY    33  30  88 NE18G25   29.50F WCI  22
FREMONT        CLOUDY    34  31  90 E13G20    29.51R WCI  25
MILLARD        CLOUDY    38  31  78 E12G17    29.52F WCI  30
OFFUTT AFB     PTSUNNY   35  33  94 NE15      29.52F WCI  25
PLATTSMOUTH    CLOUDY    35  28  77 E15       29.50F WCI  25
WAHOO          MOCLDY    34  30  86 E16       29.51R WCI  24
$$




USA.gov is the U.S. government's official web portal to all federal, state and local government web resources and services.